This is the latest recevied weather packets stored in our database for station/object K8RRT. If no packets are shown the sender has not sent any weather packets the latest 1 day(s).
| Time | Temp. | Humidity | Pressure | Rain* | Wind** | Luminosity | Snow |
|---|---|---|---|---|---|---|---|
| 1778032984 | 17.78° C | 74% | 1004.3 hPa | 0 mm | - | 0 W/m² | - |
| 1778032682 | 17.78° C | 73% | 1004 hPa | 0 mm | - | 0 W/m² | - |
| 1778032379 | 17.78° C | 74% | 1004.1 hPa | 0 mm | - | 0 W/m² | - |
| 1778032075 | 17.78° C | 73% | 1004.1 hPa | 0 mm | - | 0 W/m² | - |
| 1778031772 | 17.78° C | 72% | 1004.3 hPa | 0 mm | - | 0 W/m² | - |
| 1778031469 | 17.78° C | 73% | 1004 hPa | 0 mm | - | 0 W/m² | - |
| 1778030863 | 18.33° C | 70% | 1004.1 hPa | 0 mm | - | 0 W/m² | - |
| 1778030257 | 18.89° C | 67% | 1004.2 hPa | 0 mm | - | 0 W/m² | - |
| 1778029953 | 18.89° C | 66% | 1004.3 hPa | 0 mm | - | 0 W/m² | - |
| 1778029652 | 18.89° C | 65% | 1004.1 hPa | 0 mm | - | 0 W/m² | - |
| 1778029046 | 18.89° C | 67% | 1004.1 hPa | 0 mm | - | 0 W/m² | - |
| 1778028742 | 19.44° C | 65% | 1004.6 hPa | 0 mm | - | 0 W/m² | - |
| 1778028438 | 19.44° C | 63% | 1004.4 hPa | 0 mm | - | 0 W/m² | - |
| 1778028136 | 20° C | 62% | 1004.6 hPa | 0 mm | - | 0 W/m² | - |
| 1778027832 | 20° C | 58% | 1004.2 hPa | 0 mm | - | 0 W/m² | - |
| 1778027224 | 20.56° C | 59% | 1004.6 hPa | 0 mm | - | 0 W/m² | - |
| 1778026011 | 21.11° C | 51% | 1004.6 hPa | 0 mm | - | 1 W/m² | - |
| 1778024497 | 22.22° C | 50% | 1005 hPa | 0 mm | - | 7 W/m² | - |
| 1778022380 | 22.78° C | 48% | 1005.3 hPa | 0 mm | - | 17 W/m² | - |
| 1778020863 | 22.78° C | 47% | 1005.2 hPa | 0 mm | - | 28 W/m² | - |
| 1778020560 | 23.33° C | 47% | 1005.1 hPa | 0 mm | - | 44 W/m² | - |
| 1778020256 | 23.33° C | 48% | 1005.2 hPa | 0 mm | - | 69 W/m² | - |
| 1778019042 | 23.33° C | 47% | 1005.2 hPa | 0 mm | - | 90 W/m² | - |
| 1778016621 | 24.44° C | 49% | 1005.1 hPa | 0 mm | - | 233 W/m² | - |
| 1778016015 | 23.89° C | 48% | 1005.1 hPa | 0 mm | - | 322 W/m² | - |
* Rain latest hour (hover to see other rain measurements)
** Current wind speed in m/s (hover to see current wind gust speed)